DW0937 Weather Reports


Display with metric or nautical units.
time (UTC)temp
F
wind
direction
speed
MPH
gust
MPH
rain 1hr
in
rain 24hr
in
rain mn
in
humidity
%
barometer
mb
20260502151821 55 338 3.0 10.0 0.00 0.00 0.00 38 1017.0
20260502151319 54 303 4.0 11.0 0.00 0.00 0.00 39 1017.1
20260502150820 54 277 4.0 11.0 0.00 0.00 0.00 38 1017.1
20260502150808 55 254 4.0 10.0 0.00 0.00 0.00 40 1017.1
20260502130256 42 211 2.0 4.0 0.00 0.00 0.00 68 1017.7
20260502123755 39 252 1.0 4.0 0.00 0.00 0.00 72 1017.7
20260502123255 39 253 1.0 4.0 0.00 0.00 0.00 73 1017.7
20260502122757 38 252 1.0 2.0 0.00 0.00 0.00 74 1017.7
20260502122511 38 252 1.0 3.0 0.00 0.00 0.00 75 1017.6
20260502121754 38 251 2.0 4.0 0.00 0.00 0.00 75 1017.6
20260502121248 37 250 1.0 4.0 0.00 0.00 0.00 76 1017.7
20260502120749 37 219 1.0 4.0 0.00 0.00 0.00 76 1017.6
20260502120247 37 219 2.0 4.0 0.00 0.00 0.00 76 1017.7
20260502115749 36 217 1.0 3.0 0.00 0.00 0.00 75 1017.7
20260502115301 36 217 1.0 4.0 0.00 0.00 0.00 75 1017.7
20260502114747 36 216 2.0 4.0 0.00 0.00 0.00 74 1017.7
20260502114247 36 212 2.0 4.0 0.00 0.00 0.00 74 1017.6
20260502113247 36 218 1.0 3.0 0.00 0.00 0.00 74 1017.6
20260502113010 36 217 1.0 3.0 0.00 0.00 0.00 73 1017.4
20260502112245 36 221 1.0 3.0 0.00 0.00 0.00 73 1017.4
20260502111746 36 220 1.0 2.0 0.00 0.00 0.00 73 1017.4
20260502111247 36 220 0.0 2.0 0.00 0.00 0.00 73 1017.4
20260502110746 36 220 0.0 1.0 0.00 0.00 0.00 73 1017.3
20260502110243 36 220 0.0 2.0 0.00 0.00 0.00 72 1017.4
20260502105742 36 220 0.0 2.0 0.00 0.00 0.00 72 1017.3
20260502105236 36 220 0.0 0.0 0.00 0.00 0.00 72 1017.3
20260502104951 37 220 0.0 0.0 0.00 0.00 0.00 72 1017.3
20260502104232 37 220 0.0 0.0 0.00 0.00 0.00 71 1017.3
20260502103730 37 220 0.0 0.0 0.00 0.00 0.00 71 1017.3
20260502103232 37 220 0.0 0.0 0.00 0.00 0.00 71 1017.3
20260502102732 37 220 0.0 0.0 0.00 0.00 0.00 70 1017.3
20260502102445 37 220 0.0 0.0 0.00 0.00 0.00 70 1017.3
20260502102332 37 220 0.0 0.0 0.00 0.00 0.00 70 1017.3
20260502101231 37 220 0.0 0.0 0.00 0.00 0.00 69 1017.3
20260502100731 37 220 0.0 0.0 0.00 0.00 0.00 69 1017.3
20260502100455 37 220 0.0 0.0 0.00 0.00 0.00 69 1017.3
20260502100225 38 220 0.0 0.0 0.00 0.00 0.00 69 1017.3
20260502091448 38 219 0.0 0.0 0.00 0.00 0.00 69 1017.1
20260502090721 38 219 0.0 0.0 0.00 0.00 0.00 69 1017.1
20260502090221 38 219 0.0 0.0 0.00 0.00 0.00 69 1017.0
20260502071207 39 253 0.0 0.0 0.00 0.00 0.00 64 1017.4
20260502070704 39 253 0.0 0.0 0.00 0.00 0.00 65 1017.4
20260502070202 39 253 0.0 0.0 0.00 0.00 0.00 65 1017.4
20260502065701 39 253 0.0 1.0 0.00 0.00 0.00 65 1017.6
20260502065158 39 253 0.0 1.0 0.00 0.00 0.00 65 1017.6
20260502064924 39 253 0.0 1.0 0.00 0.00 0.00 65 1017.6
20260502064157 40 253 0.0 0.0 0.00 0.00 0.00 64 1017.7
20260502063656 40 253 0.0 0.0 0.00 0.00 0.00 63 1017.7
20260502063154 40 253 0.0 0.0 0.00 0.00 0.00 63 1017.7
20260502062653 40 253 0.0 0.0 0.00 0.00 0.00 63 1017.7
20260502062154 40 253 0.0 0.0 0.00 0.00 0.00 63 1017.7
20260502061652 40 253 0.0 0.0 0.00 0.00 0.00 63 1017.7
20260502061150 40 253 0.0 0.0 0.00 0.00 0.00 63 1017.7
20260502060650 40 253 0.0 1.0 0.00 0.00 0.00 62 1017.7
20260502060151 40 253 0.0 1.0 0.00 0.00 0.00 62 1017.7
20260502055649 40 253 0.0 2.0 0.00 0.00 0.00 62 1017.7
20260502055149 40 253 0.0 2.0 0.00 0.00 0.00 61 1017.7
20260502054908 40 253 0.0 2.0 0.00 0.00 0.00 62 1017.7
20260502054409 40 254 0.0 3.0 0.00 0.00 0.00 61 1017.7
20260502053649 41 254 0.0 3.0 0.00 0.00 0.00 60 1017.7
20260502053149 41 254 0.0 1.0 0.00 0.00 0.00 60 1017.7
20260502052650 41 254 0.0 0.0 0.00 0.00 0.00 60 1017.7
20260502052411 41 254 0.0 2.0 0.00 0.00 0.00 59 1017.7
20260502051649 41 254 0.0 2.0 0.00 0.00 0.00 59 1017.7
20260502051149 41 259 0.0 2.0 0.00 0.00 0.00 59 1017.7
20260502050650 41 260 0.0 2.0 0.00 0.00 0.00 58 1017.7
20260502050149 42 261 0.0 0.0 0.00 0.00 0.00 58 1017.7
20260502045649 42 261 0.0 0.0 0.00 0.00 0.00 57 1017.7
20260502045150 42 261 0.0 0.0 0.00 0.00 0.00 56 1017.6
20260502044650 42 261 0.0 0.0 0.00 0.00 0.00 56 1017.6
20260502044147 42 261 0.0 0.0 0.00 0.00 0.00 56 1017.6
20260502043657 42 261 0.0 0.0 0.00 0.00 0.00 55 1017.6
20260502043142 42 261 0.0 0.0 0.00 0.00 0.00 55 1017.6
20260502042829 43 261 0.0 0.0 0.00 0.00 0.00 53 1017.6
20260502042722 43 261 0.0 0.0 0.00 0.00 0.00 55 1017.6
20260502042239 43 261 0.0 0.0 0.00 0.00 0.00 54 1017.6
20260502041358 43 261 0.0 0.0 0.00 0.00 0.00 53 1017.6
20260502040637 43 261 0.0 0.0 0.00 0.00 0.00 52 1017.6
20260502040135 43 261 0.0 0.0 0.00 0.00 0.00 52 1017.6
20260502040120 43 261 0.0 0.0 0.00 0.00 0.00 52 1017.7
20260502035611 44 261 0.0 0.0 0.00 0.00 0.00 52 1017.7
20260502034635 44 262 0.0 0.0 0.00 0.00 0.00 52 1017.7
20260502034134 44 262 0.0 0.0 0.00 0.00 0.00 50 1017.7
20260502033632 44 262 0.0 0.0 0.00 0.00 0.00 49 1017.7
20260502033352 44 262 0.0 0.0 0.00 0.00 0.00 47 1017.8
20260502032626 44 263 0.0 0.0 0.00 0.00 0.00 47 1017.8
20260502032121 44 263 0.0 0.0 0.00 0.00 0.00 47 1017.7
20260502031610 45 263 0.0 1.0 0.00 0.00 0.00 46 1017.7
20260502031333 45 262 0.0 1.0 0.00 0.00 0.00 46 1017.7
20260502030603 45 263 0.0 1.0 0.00 0.00 0.00 45 1017.7
20260502030109 45 263 0.0 2.0 0.00 0.00 0.00 45 1017.6
20260502025600 45 263 0.0 2.0 0.00 0.00 0.00 44 1017.6
20260502025328 45 263 0.0 1.0 0.00 0.00 0.00 43 1017.6
20260502024601 46 263 0.0 1.0 0.00 0.00 0.00 43 1017.7
20260502024326 46 263 0.0 1.0 0.00 0.00 0.00 42 1017.6
20260502023559 46 263 0.0 2.0 0.00 0.00 0.00 42 1017.6
20260502023100 46 265 0.0 2.0 0.00 0.00 0.00 42 1017.6
20260502022822 47 266 0.0 2.0 0.00 0.00 0.00 42 1017.6
20260502022058 47 266 0.0 2.0 0.00 0.00 0.00 41 1017.6
20260502021600 47 331 0.0 0.0 0.00 0.00 0.00 41 1017.6
20260502021058 47 331 0.0 0.0 0.00 0.00 0.00 40 1017.6
20260502020558 48 331 0.0 0.0 0.00 0.00 0.00 39 1017.4
20260502020334 48 331 0.0 0.0 0.00 0.00 0.00 39 1017.3
20260502015550 49 331 0.0 0.0 0.00 0.00 0.00 37 1017.3
20260502015537 49 331 0.0 2.0 0.00 0.00 0.00 36 1017.2
20260502014551 49 331 0.0 2.0 0.00 0.00 0.00 35 1017.1
20260502014050 49 331 1.0 3.0 0.00 0.00 0.00 35 1017.0
20260502013551 50 331 0.0 3.0 0.00 0.00 0.00 34 1016.9
20260502013050 50 342 0.0 0.0 0.00 0.00 0.00 34 1016.9
20260502012550 50 342 0.0 1.0 0.00 0.00 0.00 33 1016.9
20260502012050 51 342 1.0 4.0 0.00 0.00 0.00 32 1016.9
20260502011551 51 344 1.0 4.0 0.00 0.00 0.00 32 1016.9
20260502011050 51 340 2.0 5.0 0.00 0.00 0.00 31 1016.9
20260502011036 51 335 1.0 5.0 0.00 0.00 0.00 32 1016.9
20260502010104 51 338 1.0 4.0 0.00 0.00 0.00 32 1016.9
20260502005550 51 323 1.0 4.0 0.00 0.00 0.00 32 1016.9
20260502005049 51 317 0.0 2.0 0.00 0.00 0.00 32 1016.9
20260502004547 51 318 1.0 4.0 0.00 0.00 0.00 33 1016.9
20260502004047 51 316 1.0 4.0 0.00 0.00 0.00 31 1016.9
20260502003544 51 320 1.0 4.0 0.00 0.00 0.00 31 1016.9
20260502003043 52 329 1.0 4.0 0.00 0.00 0.00 31 1017.0
20260502002541 52 355 1.0 4.0 0.00 0.00 0.00 31 1016.9
20260502002041 52 42 2.0 6.0 0.00 0.00 0.00 31 1016.9
20260502001541 52 344 2.0 6.0 0.00 0.00 0.00 30 1016.9
20260502001040 53 13 2.0 6.0 0.00 0.00 0.00 30 1016.8
20260502000541 53 344 3.0 7.0 0.00 0.00 0.00 29 1016.8
20260502000043 54 342 3.0 7.0 0.00 0.00 0.00 29 1016.8
20260501235807 54 32 2.0 7.0 0.00 0.00 0.00 29 1016.8
20260501235039 54 306 3.0 7.0 0.00 0.00 0.00 28 1016.8
20260501234802 54 315 3.0 6.0 0.00 0.00 0.00 28 1016.9
20260501234039 54 317 3.0 8.0 0.00 0.00 0.00 28 1016.8
20260501233805 55 317 4.0 8.0 0.00 0.00 0.00 28 1016.8
20260501233038 55 355 3.0 9.0 0.00 0.00 0.00 29 1016.8
20260501232534 55 355 3.0 9.0 0.00 0.00 0.00 29 1016.8
20260501232030 56 24 3.0 8.0 0.00 0.00 0.00 27 1016.8
20260501231532 57 317 3.0 7.0 0.00 0.00 0.00 28 1016.7
20260501231031 56 288 3.0 7.0 0.00 0.00 0.00 28 1016.7
20260501230530 56 304 2.0 7.0 0.00 0.00 0.00 28 1016.8
20260501230256 56 303 3.0 9.0 0.00 0.00 0.00 30 1016.8
20260501225530 55 350 3.0 9.0 0.00 0.00 0.00 28 1016.8
20260501225029 54 346 4.0 10.0 0.00 0.00 0.00 29 1016.8
20260501224528 54 321 3.0 10.0 0.00 0.00 0.00 30 1016.8
20260501224029 54 322 2.0 8.0 0.00 0.00 0.00 29 1016.8
20260501223528 55 328 3.0 6.0 0.00 0.00 0.00 28 1016.8
20260501223028 55 271 3.0 9.0 0.00 0.00 0.00 29 1016.8
20260501222529 56 317 4.0 11.0 0.00 0.00 0.00 27 1016.8
20260501222248 56 5 3.0 11.0 0.00 0.00 0.00 28 1016.8
20260501221528 56 314 2.0 6.0 0.00 0.00 0.00 28 1016.8
20260501221504 57 336 3.0 7.0 0.00 0.00 0.00 27 1016.8
20260501220525 58 270 3.0 7.0 0.00 0.00 0.00 30 1016.9
20260501220024 57 339 3.0 7.0 0.00 0.00 0.00 30 1016.8
20260501215523 55 11 4.0 7.0 0.00 0.00 0.00 29 1016.8
20260501215026 57 345 3.0 11.0 0.00 0.00 0.00 28 1016.8
20260501214524 56 317 4.0 11.0 0.00 0.00 0.00 28 1016.8
20260501214024 57 306 3.0 11.0 0.00 0.00 0.00 29 1016.9
20260501213524 57 298 3.0 7.0 0.00 0.00 0.00 29 1016.8
20260501213022 55 317 3.0 8.0 0.00 0.00 0.00 33 1016.9
20260501212520 54 34 2.0 8.0 0.00 0.00 0.00 33 1017.0
20260501212020 53 319 2.0 6.0 0.00 0.00 0.00 32 1017.0
20260501212010 53 329 3.0 8.0 0.00 0.00 0.00 32 1017.1
20260501211033 53 341 4.0 8.0 0.00 0.00 0.00 31 1017.1
20260501210743 55 342 4.0 8.0 0.00 0.00 0.00 30 1017.2
20260501210019 56 5 3.0 7.0 0.00 0.00 0.00 31 1017.1
20260501205520 56 289 3.0 6.0 0.00 0.00 0.00 31 1017.2
20260501205020 54 316 3.0 9.0 0.00 0.00 0.00 31 1017.3
20260501204520 54 5 2.0 9.0 0.00 0.00 0.00 32 1017.3
20260501204245 53 321 3.0 6.0 0.00 0.00 0.00 30 1017.3
20260501203521 55 19 2.0 6.0 0.00 0.00 0.00 31 1017.4
20260501203020 55 309 2.0 6.0 0.00 0.00 0.00 32 1017.3
20260501202744 54 336 3.0 8.0 0.00 0.00 0.00 34 1017.3
20260501202019 54 5 3.0 8.0 0.00 0.00 0.00 31 1017.6
20260501201522 54 22 4.0 8.0 0.00 0.00 0.00 31 1017.4
20260501201017 56 347 3.0 8.0 0.00 0.00 0.00 31 1017.3
20260501200518 54 280 3.0 7.0 0.00 0.00 0.00 33 1017.4
20260501200018 54 311 4.0 10.0 0.00 0.00 0.00 31 1017.6
20260501195517 54 338 4.0 10.0 0.00 0.00 0.00 32 1017.6
20260501195015 53 322 3.0 7.0 0.00 0.00 0.00 33 1017.7
20260501194516 53 329 2.0 6.0 0.00 0.00 0.00 35 1017.6
20260501194017 53 15 3.0 9.0 0.00 0.00 0.00 31 1017.6
20260501193515 54 59 4.0 9.0 0.00 0.00 0.00 32 1017.7
20260501193016 52 310 4.0 10.0 0.00 0.00 0.00 35 1017.6
20260501192515 53 17 4.0 10.0 0.00 0.00 0.00 33 1017.7
20260501192016 53 300 4.0 9.0 0.00 0.00 0.00 33 1017.7
20260501191516 54 311 5.0 9.0 0.00 0.00 0.00 33 1017.7
20260501191016 54 306 4.0 10.0 0.00 0.00 0.00 32 1017.6
20260501190742 54 0 4.0 10.0 0.00 0.00 0.00 32 1017.8
20260501190231 53 326 4.0 9.0 0.00 0.00 0.00 33 1017.7
20260501185728 54 355 4.0 8.0 0.00 0.00 0.00 34 1017.7
20260501185009 53 19 4.0 8.0 0.00 0.00 0.00 35 1017.6
20260501184509 53 298 4.0 8.0 0.00 0.00 0.00 33 1017.7
20260501184007 51 329 4.0 11.0 0.00 0.00 0.00 37 1017.7
20260501183729 50 9 4.0 11.0 0.00 0.00 0.00 35 1017.8
20260501183236 51 313 3.0 8.0 0.00 0.00 0.00 35 1017.8
20260501182730 51 106 4.0 12.0 0.00 0.00 0.00 35 1017.8
20260501182007 51 13 6.0 12.0 0.00 0.00 0.00 35 1017.9
20260501181506 50 315 5.0 13.0 0.00 0.00 0.00 35 1017.9
20260501181004 52 321 4.0 13.0 0.00 0.00 0.00 33 1017.8
20260501180504 51 294 4.0 11.0 0.00 0.00 0.00 35 1017.8
20260501180005 52 322 4.0 8.0 0.00 0.00 0.00 34 1017.9
20260501175504 51 331 4.0 9.0 0.00 0.00 0.00 36 1017.9
20260501175004 51 336 3.0 9.0 0.00 0.00 0.00 35 1018.0
20260501174504 52 350 2.0 7.0 0.00 0.00 0.00 36 1018.0
20260501174003 51 333 3.0 8.0 0.00 0.00 0.00 35 1018.1
20260501173504 51 42 4.0 8.0 0.00 0.00 0.00 37 1018.1
20260501173004 51 326 4.0 10.0 0.00 0.00 0.00 37 1018.0
20260501172724 50 335 5.0 12.0 0.00 0.00 0.00 35 1018.1
20260501172005 51 333 4.0 12.0 0.00 0.00 0.00 35 1018.1
20260501171516 51 220 4.0 8.0 0.00 0.00 0.00 35 1018.0
20260501171004 50 315 3.0 9.0 0.00 0.00 0.00 39 1018.1
20260501170504 50 346 4.0 10.0 0.00 0.00 0.00 40 1018.1
20260501170005 50 319 4.0 10.0 0.00 0.00 0.00 37 1018.1
20260501165506 52 18 3.0 9.0 0.00 0.00 0.00 36 1018.1
20260501165004 50 333 4.0 11.0 0.00 0.00 0.00 37 1018.1
20260501164504 51 347 4.0 13.0 0.00 0.00 0.00 40 1018.0
20260501164005 50 88 4.0 13.0 0.00 0.00 0.00 41 1018.1
20260501163504 49 26 4.0 12.0 0.00 0.00 0.00 38 1018.2
20260501163005 50 327 4.0 9.0 0.00 0.00 0.00 42 1018.1
20260501162730 50 321 4.0 8.0 0.00 0.00 0.00 39 1018.2
20260501162004 49 323 4.0 12.0 0.00 0.00 0.00 38 1018.1
20260501161505 49 319 4.0 12.0 0.00 0.00 0.00 38 1018.1
20260501160957 49 306 3.0 8.0 0.00 0.00 0.00 38 1018.1
20260501160948 48 347 3.0 11.0 0.00 0.00 0.00 42 1018.2
20260501160218 49 57 3.0 11.0 0.00 0.00 0.00 37 1018.3
20260501155456 49 68 3.0 12.0 0.00 0.00 0.00 39 1018.2
20260501155214 48 5 4.0 12.0 0.00 0.00 0.00 37 1018.2
20260501154722 48 59 3.0 10.0 0.00 0.00 0.00 39 1018.2
20260501153955 47 321 3.0 8.0 0.00 0.00 0.00 41 1018.2
20260501153455 48 48 3.0 11.0 0.00 0.00 0.00 40 1018.2
20260501152956 48 339 3.0 11.0 0.00 0.00 0.00 41 1018.2